Weather History for Krasnodar, Russia

Change the Weather History Date:

Monday, January 21, 2013

  Actual Average Record
Temperature  
Mean Temperature 43 °F -  
Max Temperature 51 °F - - ()
Min Temperature 35 °F - - ()
Degree Days  
Heating Degree Days 22    
Moisture  
Dew Point 40 °F    
Average Humidity 81    
Maximum Humidity 100    
Minimum Humidity 67    
Precipitation  
Precipitation 0.00 in 0.06 in - ()
Sea Level Pressure  
Sea Level Pressure 29.91 in    
Wind  
Wind Speed 9 mph ()    
Max Wind Speed 22 mph    
Max Gust Speed 34 mph    
Visibility 5.7 miles    
Events Rain    
T = Trace of Precipitation, MM = Missing Value Source: Averaged Metar Reports

Daily Weather History Graph

Daily Weather History Graph

Search for Another Location

Airport:

Trip Planner

Search our weather history database for the weather conditions in past years. The results will help you decide how hot, cold, wet, or windy it might be!

Date:

Astronomy

Jan. 21, 2013 Rise Set
Actual Time 8:54 AM MSK 6:15 PM MSK
Civil Twilight 8:21 AM MSK 6:48 PM MSK
Nautical Twilight 7:45 AM MSK 7:24 PM MSK
Astronomical Twilight 7:11 AM MSK 7:58 PM MSK
Moon 1:40 PM MSK (1/21) 4:02 AM MSK (1/21)
Length of Visible Light 10h 26m
Length of Day
9h 21m
Waxing Gibbous, 71% of the Moon is Illuminated
Jan 21
Waxing Gibbous
Jan 27
Full
Feb 3
Last Quarter
Feb 10
New
Feb 18
First Quarter

Hourly Weather History & Observations

Time (MSK) Temp. Windchill Dew Point Humidity Pressure Visibility Wind Dir Wind Speed Gust Speed Precip Events Conditions
12:00 AM 42.8 °F 36.7 °F 37.4 °F 81% 29.86 in 6.2 mi SW 11.2 mph - N/A   Mostly Cloudy
12:30 AM 44.6 °F 39.8 °F 37.4 °F 76% 29.86 in 6.2 mi SW 8.9 mph - N/A   Mostly Cloudy
1:00 AM 42.8 °F 36.7 °F 37.4 °F 81% 29.89 in 6.2 mi SSW 11.2 mph - N/A   Mostly Cloudy
1:30 AM 42.8 °F 36.7 °F 37.4 °F 81% 29.89 in 6.2 mi SSW 11.2 mph - N/A   Mostly Cloudy
2:00 AM 42.8 °F 37.6 °F 37.4 °F 81% 29.89 in 6.2 mi SW 8.9 mph - N/A   Mostly Cloudy
2:30 AM 44.6 °F 40.8 °F 37.4 °F 76% 29.89 in 6.2 mi SW 6.7 mph - N/A   Mostly Cloudy
3:00 AM 42.8 °F 38.7 °F 37.4 °F 81% 29.89 in 6.2 mi SW 6.7 mph - N/A   Mostly Cloudy
3:30 AM 42.8 °F 38.7 °F 37.4 °F 81% 29.89 in 6.2 mi SW 6.7 mph - N/A   Mostly Cloudy
4:00 AM 41.0 °F 36.5 °F 37.4 °F 87% 29.92 in 6.2 mi West 6.7 mph - N/A   Mostly Cloudy
4:30 AM 41.0 °F 38.1 °F 37.4 °F 87% 29.92 in 6.2 mi WNW 4.5 mph - N/A   Mostly Cloudy
5:00 AM 37.4 °F - 33.8 °F 87% 29.92 in 6.2 mi Variable 2.2 mph - N/A   Scattered Clouds
5:30 AM 37.4 °F - 35.6 °F 93% 29.92 in 6.2 mi Calm Calm - N/A   Scattered Clouds
6:00 AM 35.6 °F - 35.6 °F 100% 29.92 in 3.7 mi Calm Calm - N/A   Mostly Cloudy
6:30 AM 37.4 °F - 35.6 °F 93% 29.92 in 3.7 mi Calm Calm - N/A   Mostly Cloudy
7:00 AM 37.4 °F - 37.4 °F 100% 29.92 in 4.3 mi Calm Calm - N/A   Mostly Cloudy
7:30 AM 39.2 °F - 37.4 °F 93% 29.92 in 3.7 mi East 2.2 mph - N/A   Mostly Cloudy
8:00 AM 39.2 °F - 37.4 °F 93% 29.92 in 3.7 mi East 2.2 mph - N/A   Mostly Cloudy
8:30 AM 39.2 °F - 39.2 °F 100% 29.92 in 3.7 mi Calm Calm - N/A   Mostly Cloudy
9:00 AM 41.0 °F - 39.2 °F 93% 29.92 in 4.3 mi Calm Calm - N/A   Mostly Cloudy
9:30 AM 44.6 °F 42.3 °F 41.0 °F 87% 29.92 in 6.2 mi SW 4.5 mph - N/A   Mostly Cloudy
10:00 AM 48.2 °F - 42.8 °F 82% 29.92 in 6.2 mi SW 11.2 mph - N/A   Mostly Cloudy
10:30 AM 48.2 °F - 41.0 °F 76% 29.95 in 6.2 mi SW 15.7 mph - N/A   Mostly Cloudy
11:00 AM 48.2 °F - 42.8 °F 82% 29.95 in 6.2 mi SW 13.4 mph - N/A   Mostly Cloudy
11:30 AM 50.0 °F - 42.8 °F 76% 29.95 in 6.2 mi SW 15.7 mph 22.4 mph N/A   Mostly Cloudy
12:00 PM 50.0 °F - 42.8 °F 76% 29.95 in 6.2 mi SSW 17.9 mph 29.1 mph N/A   Mostly Cloudy
12:30 PM 50.0 °F - 42.8 °F 76% 29.95 in 6.2 mi SSW 20.1 mph 26.8 mph N/A   Mostly Cloudy
1:00 PM 50.0 °F - 42.8 °F 76% 29.92 in 6.2 mi SSW 20.1 mph 26.8 mph N/A   Mostly Cloudy
1:30 PM 50.0 °F - 42.8 °F 76% 29.92 in 6.2 mi SSW 20.1 mph 26.8 mph N/A Rain Light Rain Showers
2:00 PM 50.0 °F - 42.8 °F 76% 29.92 in 6.2 mi SSW 15.7 mph - N/A   Mostly Cloudy
2:30 PM 50.0 °F - 42.8 °F 76% 29.92 in - SSW 15.7 mph 22.4 mph N/A   Clear
3:00 PM 51.8 °F - 42.8 °F 71% 29.89 in - SSW 20.1 mph 31.3 mph N/A   Clear
3:30 PM 51.8 °F - 42.8 °F 71% 29.92 in 6.2 mi SSW 22.4 mph 33.6 mph N/A   Mostly Cloudy
4:00 PM 51.8 °F - 42.8 °F 71% 29.92 in - SSW 20.1 mph 26.8 mph N/A   Clear
4:30 PM 50.0 °F - 41.0 °F 71% 29.89 in - SSW 20.1 mph 31.3 mph N/A   Clear
5:00 PM 51.8 °F - 41.0 °F 67% 29.92 in - SSW 22.4 mph 33.6 mph N/A   Clear
5:30 PM 50.0 °F - 41.0 °F 71% 29.92 in - SSW 20.1 mph 31.3 mph N/A   Clear
6:00 PM 50.0 °F - 41.0 °F 71% 29.92 in 6.2 mi SW 20.1 mph - N/A   Mostly Cloudy
6:30 PM 50.0 °F - 42.8 °F 76% 29.92 in 6.2 mi SW 13.4 mph 20.1 mph N/A   Mostly Cloudy
7:00 PM 50.0 °F - 41.0 °F 71% 29.92 in 6.2 mi SW 13.4 mph 20.1 mph N/A   Mostly Cloudy
7:30 PM 48.2 °F - 41.0 °F 76% 29.92 in 6.2 mi SW 13.4 mph 20.1 mph N/A   Mostly Cloudy
8:00 PM 46.4 °F 40.5 °F 41.0 °F 81% 29.92 in 6.2 mi SW 13.4 mph 20.1 mph N/A   Mostly Cloudy
8:30 PM 44.6 °F 38.2 °F 41.0 °F 87% 29.92 in 6.2 mi SSW 13.4 mph 20.1 mph N/A   Mostly Cloudy
9:00 PM 46.4 °F 42.0 °F 41.0 °F 81% 29.89 in - SW 8.9 mph - N/A   Clear
9:30 PM 48.2 °F - 41.0 °F 76% 29.89 in - SSW 11.2 mph - N/A   Clear
10:00 PM 48.2 °F - 41.0 °F 76% 29.89 in - SSW 11.2 mph 22.4 mph N/A   Clear
10:30 PM 48.2 °F - 41.0 °F 76% 29.89 in - SSW 11.2 mph - N/A   Clear
11:00 PM 48.2 °F - 41.0 °F 76% 29.89 in - SSW 11.2 mph - N/A   Clear
11:30 PM 48.2 °F - 41.0 °F 76% 29.89 in - SSW 11.2 mph - N/A   Clear